Ardabil, Iran

6:38 AM +0330 on October 21, 2019 (GMT +0330)
Ardabil

Weather History for OITL - August, 2019

Change the Weather History Date:

Tuesday, August 27, 2019

  Actual Average Record
Temperature  
Mean Temperature 62 °F -  
Max Temperature 73 °F - - ()
Min Temperature 51 °F - - ()
Degree Days  
Heating Degree Days 3    
Growing Degree Days 12 (Base 50)    
Moisture  
Dew Point 53 °F    
Average Humidity 70    
Maximum Humidity 88    
Minimum Humidity 43    
Precipitation  
Precipitation 0.00 in - - ()
Sea Level Pressure  
Sea Level Pressure 30.13 in    
Wind  
Wind Speed 12 mph ()    
Max Wind Speed 26 mph    
Max Gust Speed -    
Visibility 6.2 miles    
Events Fog , Rain , Thunderstorm    
T = Trace of Precipitation, MM = Missing Value Source: Averaged Metar Reports

Daily Weather History Graph

Daily Weather History Graph

Search for Another Location

Airport or City:

Astronomy

Aug. 27, 2019 Rise Set
Actual Time 6:40 AM +0430 7:54 PM +0430
Civil Twilight 6:13 AM +0430 8:21 PM +0430
Nautical Twilight 5:40 AM +0430 8:54 PM +0430
Astronomical Twilight 5:06 AM +0430 9:28 PM +0430
Moon 2:44 AM +0430 (8/27) 5:50 PM +0430 (8/27)
Length of Visible Light 14h 08m
Length of Day
13h 13m
Waning Crescent, 14% of the Moon is Illuminated
Aug 27
Waning Crescent
Aug 30
New
Sep 6
First Quarter
Sep 14
Full
Sep 22
Last Quarter

Hourly Weather History & Observations

Time (+0430) Temp. Dew Point Humidity Pressure Visibility Wind Dir Wind Speed Gust Speed Precip Events Conditions
12:23 AM 59.0 °F 51.8 °F 77% 30.21 in 6.2 mi East 13.8 mph - N/A Fog Partly Cloudy
1:22 AM 59.0 °F 53.6 °F 82% 30.21 in 6.2 mi East 16.1 mph - N/A Fog Partly Cloudy
2:23 AM 59.0 °F 53.6 °F 82% 30.18 in 6.2 mi East 18.4 mph - N/A Rain Light Rain Showers
3:23 AM 59.0 °F 53.6 °F 82% 30.21 in 6.2 mi ENE 13.8 mph - N/A Fog , Thunderstorm Thunderstorm
4:21 AM 57.2 °F 51.8 °F 82% 30.21 in 6.2 mi ENE 11.5 mph - N/A Fog Scattered Clouds
5:22 AM 55.4 °F 51.8 °F 88% 30.21 in 6.2 mi NE 9.2 mph - N/A Fog Scattered Clouds
6:22 AM 53.6 °F 48.2 °F 82% 30.21 in 6.2 mi North 6.9 mph - N/A Fog Scattered Clouds
6:30 AM 53.6 °F 48.2 °F 82% 30.21 in 6.2 mi North 6.9 mph - N/A Fog Partly Cloudy
7:20 AM 51.8 °F 48.2 °F 88% 30.21 in 6.2 mi Variable 2.3 mph - N/A   Partly Cloudy
7:30 AM 51.8 °F 48.2 °F 88% 30.21 in 6.2 mi Variable 2.3 mph - N/A   Partly Cloudy
8:22 AM 59.0 °F 53.6 °F 82% 30.21 in 6.2 mi SSE 6.9 mph - N/A   Partly Cloudy
8:30 AM 59.0 °F 53.6 °F 82% 30.21 in 6.2 mi SSE 6.9 mph - N/A   Partly Cloudy
9:23 AM 64.4 °F 48.2 °F 56% 30.18 in 6.2 mi ESE 6.9 mph - N/A   Partly Cloudy
9:30 AM 64.4 °F 48.2 °F 56% 30.18 in 6.2 mi ESE 6.9 mph - N/A   Partly Cloudy
10:00 AM 68.0 °F 46.4 °F 46% 30.18 in 6.2 mi East 11.5 mph - N/A   Partly Cloudy
10:22 AM 68.0 °F 44.6 °F 43% 30.18 in 6.2 mi SE 11.5 mph - N/A   Partly Cloudy
10:30 AM 68.0 °F 44.6 °F 43% 30.18 in 6.2 mi SE 11.5 mph - N/A   Partly Cloudy
11:00 AM 69.8 °F 46.4 °F 43% 30.18 in 6.2 mi SSE 11.5 mph - N/A   Partly Cloudy
11:22 AM 69.8 °F 46.4 °F 43% 30.15 in 6.2 mi East 11.5 mph - N/A   Partly Cloudy
12:00 PM 71.6 °F 48.2 °F 43% 30.15 in 6.2 mi ESE 16.1 mph - N/A   Partly Cloudy
12:23 PM 71.6 °F 48.2 °F 43% 30.12 in 6.2 mi ENE 11.5 mph - N/A   Partly Cloudy
12:30 PM 71.6 °F 48.2 °F 43% 30.12 in 6.2 mi ENE 11.5 mph - N/A   Partly Cloudy
1:24 PM 73.4 °F 50.0 °F 44% 30.09 in 6.2 mi East 13.8 mph - N/A   Partly Cloudy
1:30 PM 73.4 °F 50.0 °F 44% 30.09 in 6.2 mi East 13.8 mph - N/A   Partly Cloudy
2:23 PM 73.4 °F 53.6 °F 50% 30.09 in 6.2 mi ENE 13.8 mph - N/A   Partly Cloudy
3:23 PM 71.6 °F 57.2 °F 60% 30.06 in 6.2 mi ENE 21.9 mph - N/A   Partly Cloudy
4:22 PM 71.6 °F 59.0 °F 64% 30.06 in 6.2 mi ENE 24.2 mph - N/A Fog Partly Cloudy
5:00 PM 69.8 °F 60.8 °F 73% 30.04 in 6.2 mi ENE 21.9 mph - N/A Fog Partly Cloudy
5:22 PM 68.0 °F 60.8 °F 78% 30.04 in 6.2 mi ENE 26.5 mph - N/A Fog Partly Cloudy
5:30 PM 68.0 °F 60.8 °F 78% 30.04 in 6.2 mi ENE 26.5 mph - N/A Fog Partly Cloudy
6:00 PM 68.0 °F 60.8 °F 78% 30.04 in 6.2 mi East 24.2 mph - N/A Fog Partly Cloudy
6:21 PM 66.2 °F 60.8 °F 83% 30.04 in 6.2 mi ENE 21.9 mph - N/A Fog Mostly Cloudy
6:30 PM 66.2 °F 60.8 °F 83% 30.04 in 6.2 mi ENE 21.9 mph - N/A Fog Mostly Cloudy
7:20 PM 64.4 °F 60.8 °F 88% 30.04 in 6.2 mi ENE 21.9 mph - N/A   Mostly Cloudy
7:30 PM 64.4 °F 60.8 °F 88% 30.04 in 6.2 mi ENE 21.9 mph - N/A   Mostly Cloudy
8:21 PM 62.6 °F 59.0 °F 88% 30.04 in 5.0 mi ENE 18.4 mph - N/A Fog Fog
9:21 PM 62.6 °F 59.0 °F 88% 30.06 in 6.2 mi East 9.2 mph - N/A   Partly Cloudy
10:25 PM 60.8 °F 57.2 °F 88% 30.06 in 6.2 mi East 11.5 mph - N/A Thunderstorm Thunderstorm
11:20 PM 60.8 °F 57.2 °F 88% 30.04 in 6.2 mi ENE 6.9 mph - N/A Rain Light Rain Showers